User: anonymous   Login
Location: Newark
(49.1000°N, 0.4667°W)
Time: 11:29:50
(UTC+00:00)
Language:

LO-87 - Orbit

View from above orbital plane
View from above orbital plane
View from above satellite
View from above satellite

Ground track
Ground track

The orbit data is extracted from the following two-line orbital elements,

1 41557U 16033B   20185.09565722  .00000716  00000-0  28850-4 0  9998
2 41557  97.4040 275.2176 0014471  38.7299 321.4975 15.28053064228167
Epoch (UTC): 03 July 2020 02:17:44
Eccentricity: 0.0014471
inclination: 97.4040°
perigee height: 472 km
apogee height: 491 km
right ascension of ascending node: 275.2176°
argument of perigee: 38.7299°
revolutions per day: 15.28053064
mean anomaly at epoch: 321.4975°
orbit number at epoch: 22816

The dashed part of the orbit path shows where the satellite is in the earth's shadow,  

DLR